Retour au catalogue

STARLINK-32876

ActifCommunicationsVLEO
NORAD 63151·PAYLOAD·🇺🇸 United States

Lancé Mar 3, 2025 depuis Cape Canaveral Space Force Station

Loading…

Prochains Passages (prochaines 24 heures)

TLE

FraisSource: CelesTrak SupGP

Époque: Sep 14, 2026, 21:38 UTC

1 63151C 25043V   26257.90187500  .00045697  00000+0  16550-2 0  2578
2 63151  43.0044  27.2054 0001962 277.5495 135.3446 15.27558448    16

Suivez STARLINK-32876 en temps réel avec AllMySat

Download on the App Store